Back to catalog

CZ-6A DEB

AlivePO
NORAD 54393·DEBRIS·🇨🇳 China

Launched Nov 11, 2022 from Taiyuan Satellite Launch Center

Loading…

Next Passes (next 24 hours)

TLE

FreshSource: Space-Track

Epoch: Sep 14, 2026, 06:57 UTC

1 54393U 22151DR  26257.28980521  .00000261  00000-0  29244-3 0  9995
2 54393  98.4967 100.7644 0315308  33.9312 328.1569 13.58717938190097

Track CZ-6A DEB in real time with AllMySat

Download on the App Store